Change the Weather History Date:

Thursday, January 9, 2014

  Actual Average Record
Temperature  
Mean Temperature 27 °F 19 °F  
Max Temperature 32 °F 31 °F 49 °F (1990)
Min Temperature 22 °F 7 °F -44 °F (1962)
Degree Days  
Heating Degree Days 38 46  
Month to date heating degree days 400 417  
Since 1 July heating degree days 4118 4381  
Cooling Degree Days 0 0  
Month to date cooling degree days 0 0  
Year to date cooling degree days 0 0  
Moisture  
Dew Point 20 °F    
Average Humidity 67    
Maximum Humidity 88    
Minimum Humidity 46    
Precipitation  
Precipitation 0.01 in 0.02 in 0.25 in (1911)
Month to date precipitation 0.06 0.15  
Year to date precipitation 0.06 0.15  
Sea Level Pressure  
Sea Level Pressure 29.76 in    
Wind  
Wind Speed 7 mph (NW)    
Max Wind Speed 22 mph    
Max Gust Speed 28 mph    
Visibility 8 miles    
Events Snow    
T = Trace of Precipitation, MM = Missing Value Source: NWS Daily Summary

Daily Weather History Graph

Daily Weather History Graph

Search for Another Location

Airport or City:

Trip Planner

Search our weather history database for the weather conditions in past years. The results will help you decide how hot, cold, wet, or windy it might be!

Date:

Astronomy

Jan. 09, 2014 Rise Set
Actual Time 8:10 AM MST 5:04 PM MST
Civil Twilight 7:36 AM MST 5:38 PM MST
Nautical Twilight 6:59 AM MST 6:15 PM MST
Astronomical Twilight 6:23 AM MST 6:51 PM MST
Moon 12:40 PM MST (1/9) 2:13 AM MST (1/9)
Length of Visible Light 10h 01m
Length of Day
8h 53m
Waxing Gibbous, 66% of the Moon is Illuminated
Jan 9
Waxing Gibbous
Jan 15
Full
Jan 23
Last Quarter
Jan 30
New
Feb 6
First Quarter

Hourly Weather History & Observations

Time (MST) Temp. Windchill Dew Point Humidity Pressure Visibility Wind Dir Wind Speed Gust Speed Precip Events Conditions
12:53 AM 28.0 °F - 19.9 °F 72% 29.81 in 10.0 mi Calm Calm - N/A   Overcast
1:53 AM 28.0 °F 24.2 °F 19.9 °F 72% 29.77 in 10.0 mi North 3.5 mph - N/A   Overcast
2:53 AM 28.9 °F - 19.9 °F 69% 29.76 in 10.0 mi Calm Calm - N/A   Overcast
3:53 AM 28.9 °F - 19.9 °F 69% 29.73 in 10.0 mi Calm Calm - N/A   Overcast
4:53 AM 28.9 °F 25.2 °F 21.0 °F 72% 29.72 in 10.0 mi West 3.5 mph - N/A   Overcast
5:23 AM 28.4 °F 22.2 °F 21.2 °F 74% 29.68 in 1.8 mi NNW 5.8 mph - 0.00 in Snow Light Snow
5:30 AM 28.4 °F 24.6 °F 23.0 °F 80% 29.68 in 1.0 mi North 3.5 mph - 0.00 in Snow Light Snow
5:40 AM 28.4 °F 23.3 °F 24.8 °F 86% 29.68 in 1.2 mi NNE 4.6 mph - 0.00 in Snow Light Snow
5:51 AM 28.4 °F 20.4 °F 24.8 °F 86% 29.67 in 3.0 mi ENE 8.1 mph - 0.00 in Snow Light Snow
5:53 AM 28.0 °F 20.0 °F 25.0 °F 88% 29.74 in 3.0 mi ENE 8.1 mph - 0.00 in Snow Light Snow
6:12 AM 28.4 °F 20.4 °F 23.0 °F 80% 29.67 in 9.0 mi SSW 8.1 mph - 0.00 in   Overcast
6:19 AM 28.4 °F 20.4 °F 23.0 °F 80% 29.66 in 10.0 mi South 8.1 mph - 0.00 in   Overcast
6:53 AM 28.9 °F 25.2 °F 23.0 °F 78% 29.73 in 10.0 mi East 3.5 mph - 0.00 in   Overcast
7:53 AM 27.0 °F - 21.9 °F 81% 29.73 in 10.0 mi Calm Calm - N/A   Scattered Clouds
8:53 AM 24.1 °F 18.2 °F 21.9 °F 91% 29.77 in 10.0 mi NNW 4.6 mph - N/A   Mostly Cloudy
9:53 AM 27.0 °F - 21.9 °F 81% 29.77 in 10.0 mi Calm Calm - N/A   Mostly Cloudy
10:28 AM 28.4 °F 21.2 °F 24.8 °F 86% 29.70 in 1.8 mi NNW 6.9 mph - 0.00 in Snow Light Snow
10:33 AM 28.4 °F 22.2 °F 24.8 °F 86% 29.70 in 0.8 mi NW 5.8 mph - 0.00 in Snow Light Snow
10:45 AM 28.4 °F 20.4 °F 24.8 °F 86% 29.71 in 1.2 mi NW 8.1 mph - 0.00 in Snow Light Snow
10:53 AM 28.9 °F 19.2 °F 26.1 °F 89% 29.80 in 1.5 mi NW 11.5 mph - 0.00 in Snow Light Snow
11:08 AM 28.4 °F 23.3 °F 24.8 °F 86% 29.71 in 2.5 mi NNW 4.6 mph - 0.00 in Snow Light Snow
11:12 AM 28.4 °F 22.2 °F 24.8 °F 86% 29.71 in 6.0 mi NNW 5.8 mph - 0.00 in Snow Light Snow
11:28 AM 30.2 °F 24.3 °F 24.8 °F 80% 29.70 in 10.0 mi NNW 5.8 mph - 0.00 in   Mostly Cloudy
11:53 AM 30.9 °F 21.7 °F 23.0 °F 72% 29.79 in 10.0 mi WNW 11.5 mph - 0.00 in   Mostly Cloudy
12:53 PM 30.9 °F 21.7 °F 19.0 °F 61% 29.78 in 10.0 mi West 11.5 mph 24.2 mph 0.01 in   Partly Cloudy
1:53 PM 30.9 °F 21.2 °F 17.1 °F 57% 29.77 in 10.0 mi NW 12.7 mph - N/A   Mostly Cloudy
2:53 PM 30.0 °F 19.1 °F 12.9 °F 49% 29.79 in 10.0 mi NW 15.0 mph 27.6 mph N/A   Scattered Clouds
4:53 PM 28.9 °F 16.9 °F 10.9 °F 47% 29.84 in 10.0 mi West 17.3 mph 27.6 mph N/A   Scattered Clouds
5:53 PM 25.0 °F 17.1 °F 10.9 °F 55% 29.87 in 10.0 mi NW 6.9 mph - N/A   Mostly Cloudy
6:53 PM 24.1 °F 18.2 °F 9.0 °F 53% 29.88 in 10.0 mi NW 4.6 mph - N/A   Clear
7:53 PM 21.9 °F - 9.0 °F 58% 29.90 in 10.0 mi Calm Calm - N/A   Clear
8:53 PM 26.1 °F 16.8 °F 9.0 °F 49% 29.88 in 10.0 mi WSW 9.2 mph - N/A   Clear
9:53 PM 25.0 °F 14.8 °F 12.9 °F 60% 29.86 in 10.0 mi SW 10.4 mph 17.3 mph N/A   Overcast
10:53 PM 26.1 °F 19.4 °F 10.9 °F 53% 29.82 in 10.0 mi West 5.8 mph - N/A   Overcast
11:53 PM 26.1 °F 19.4 °F 10.0 °F 51% 29.79 in 10.0 mi SSW 5.8 mph - N/A   Overcast